When you browse on this site, cookies collect data to enhance your experience and personalize the content and advertising you see.
Visit our Privacy Policy to learn more. By continuing to use the site, you agree to this use of cookies and data.
  • In Hungary
  • List of Countries
  • For 7 days
  • Water Temperature
  • Satellite Maps
  • Weather Map
  • News
  • Weather Widgets
  • user-avatar
    Login

    Hourly Weather Mandaguari

    Today, 19 November, Monday

    Time Temperature Precipitation Wind Pressure Humidity
    00:00 +19°C° 0 mm 2 mps 695 mmHg 84%
    01:00 +18°C° 0 mm 2 mps 695 mmHg 84%
    02:00 +18°C° 0 mm 2 mps 695 mmHg 84%
    03:00 +18°C° 0 mm 2 mps 695 mmHg 83%
    04:00 +18°C° 0 mm 3 mps 695 mmHg 84%
    05:00 +18°C° 0 mm 3 mps 695 mmHg 84%
    06:00 +18°C° 0 mm 3 mps 695 mmHg 85%
    07:00 +19°C° 0 mm 4 mps 695 mmHg 82%
    08:00 +20°C° 0 mm 4 mps 696 mmHg 80%
    09:00 +22°C° 0 mm 5 mps 697 mmHg 76%
    10:00 +22°C° 0 mm 5 mps 697 mmHg 73%
    11:00 +23°C° 0 mm 5 mps 697 mmHg 70%
    12:00 +25°C° 0 mm 5 mps 697 mmHg 67%
    13:00 +26°C° 0 mm 4 mps 697 mmHg 65%
    14:00 +26°C° 0 mm 4 mps 696 mmHg 63%
    15:00 +27°C° 0 mm 4 mps 696 mmHg 61%
    16:00 +26°C° 0 mm 4 mps 696 mmHg 64%
    17:00 +25°C° 0 mm 4 mps 695 mmHg 68%
    18:00 +22°C° 0 mm 4 mps 695 mmHg 71%
    19:00 +21°C° 0 mm 4 mps 696 mmHg 73%
    20:00 +19°C° 0 mm 5 mps 696 mmHg 75%
    21:00 +17°C° 0 mm 5 mps 696 mmHg 77%
    22:00 +17°C° 0 mm 4 mps 697 mmHg 77%
    23:00 +17°C° 0 mm 4 mps 697 mmHg 78%

    Tomorrow, 20 November, Tuesday

    Time Temperature Precipitation Wind Pressure Humidity
    00:00 +15°C° 0 mm 4 mps 697 mmHg 79%
    01:00 +15°C° 0 mm 4 mps 697 mmHg 81%
    02:00 +16°C° 0 mm 3 mps 697 mmHg 82%
    03:00 +14°C° 0 mm 3 mps 697 mmHg 84%
    04:00 +14°C° 0 mm 3 mps 697 mmHg 84%
    05:00 +14°C° 0 mm 3 mps 697 mmHg 85%
    06:00 +13°C° 0 mm 3 mps 697 mmHg 86%
    07:00 +17°C° 0 mm 3 mps 697 mmHg 78%
    08:00 +19°C° 0 mm 4 mps 698 mmHg 71%
    09:00 +21°C° 0 mm 4 mps 699 mmHg 64%
    10:00 +23°C° 0 mm 4 mps 699 mmHg 59%
    11:00 +26°C° 0 mm 4 mps 699 mmHg 54%
    12:00 +28°C° 0 mm 3 mps 699 mmHg 50%
    13:00 +29°C° 0 mm 3 mps 698 mmHg 48%
    14:00 +29°C° 0 mm 3 mps 698 mmHg 46%
    15:00 +30°C° 0 mm 3 mps 697 mmHg 44%
    16:00 +29°C° 0 mm 3 mps 697 mmHg 50%
    17:00 +28°C° 0 mm 3 mps 696 mmHg 56%
    18:00 +27°C° 0 mm 3 mps 696 mmHg 62%
    19:00 +25°C° 0 mm 3 mps 696 mmHg 66%
    20:00 +22°C° 0 mm 4 mps 697 mmHg 70%
    21:00 +20°C° 0 mm 5 mps 697 mmHg 74%
    22:00 +20°C° 0 mm 5 mps 698 mmHg 74%
    23:00 +19°C° 0 mm 5 mps 698 mmHg 74%

    Day after tomorrow, 21 November, Wednesday

    Time Temperature Precipitation Wind Pressure Humidity
    00:00 +17°C° 0 mm 5 mps 698 mmHg 74%
    01:00 +17°C° 0 mm 4 mps 698 mmHg 75%
    02:00 +15°C° 0 mm 4 mps 697 mmHg 77%
    03:00 +14°C° 0 mm 4 mps 697 mmHg 79%
    04:00 +14°C° 0 mm 4 mps 697 mmHg 79%
    05:00 +14°C° 0 mm 4 mps 697 mmHg 80%
    06:00 +14°C° 0 mm 4 mps 697 mmHg 81%
    07:00 +17°C° 0 mm 4 mps 698 mmHg 75%
    08:00 +20°C° 0 mm 4 mps 699 mmHg 70%
    09:00 +22°C° 0 mm 5 mps 699 mmHg 64%
    10:00 +25°C° 0 mm 5 mps 699 mmHg 61%
    11:00 +27°C° 0 mm 4 mps 699 mmHg 57%
    12:00 +29°C° 0 mm 4 mps 699 mmHg 53%
    13:00 +29°C° 0 mm 4 mps 698 mmHg 54%
    14:00 +29°C° 0 mm 4 mps 698 mmHg 54%
    15:00 +29°C° 0 mm 4 mps 697 mmHg 54%
    16:00 +28°C° 0 mm 4 mps 696 mmHg 58%
    17:00 +28°C° 0 mm 3 mps 696 mmHg 62%
    18:00 +27°C° 0 mm 3 mps 696 mmHg 66%
    19:00 +26°C° 0 mm 3 mps 696 mmHg 69%
    20:00 +23°C° 0 mm 4 mps 696 mmHg 72%
    21:00 +22°C° 0 mm 5 mps 697 mmHg 75%
    22:00 +21°C° 0 mm 5 mps 697 mmHg 75%
    23:00 +21°C° 0 mm 5 mps 697 mmHg 76%

    22 November, Thursday

    Time Temperature Precipitation Wind Pressure Humidity
    00:00 +20°C° 0 mm 5 mps 697 mmHg 77%
    01:00 +20°C° 0 mm 5 mps 697 mmHg 79%
    02:00 +19°C° 0 mm 5 mps 696 mmHg 81%
    03:00 +19°C° 0 mm 4 mps 696 mmHg 83%
    04:00 +18°C° 0 mm 4 mps 696 mmHg 85%
    05:00 +18°C° 0 mm 4 mps 696 mmHg 86%
    06:00 +18°C° 0 mm 4 mps 696 mmHg 87%
    07:00 +20°C° 0 mm 4 mps 697 mmHg 82%
    08:00 +21°C° 0 mm 4 mps 697 mmHg 77%
    09:00 +23°C° 0 mm 5 mps 698 mmHg 72%
    10:00 +25°C° 0 mm 4 mps 698 mmHg 70%
    11:00 +26°C° 0 mm 4 mps 697 mmHg 67%
    12:00 +27°C° 0 mm 4 mps 697 mmHg 65%
    13:00 +27°C° 0.2 mm 4 mps 697 mmHg 63%
    14:00 +28°C° 0.2 mm 4 mps 696 mmHg 60%
    15:00 +29°C° 0.2 mm 4 mps 696 mmHg 58%
    16:00 +28°C° 0.1 mm 3 mps 695 mmHg 61%
    17:00 +28°C° 0.1 mm 3 mps 695 mmHg 64%
    18:00 +27°C° 0.1 mm 2 mps 695 mmHg 67%
    19:00 +26°C° 0 mm 2 mps 695 mmHg 72%
    20:00 +24°C° 0 mm 2 mps 695 mmHg 77%
    21:00 +23°C° 0 mm 2 mps 695 mmHg 81%
    22:00 +21°C° 0 mm 3 mps 696 mmHg 82%
    23:00 +21°C° 0 mm 3 mps 696 mmHg 82%

    23 November, Friday

    Time Temperature Precipitation Wind Pressure Humidity
    00:00 +21°C° 0 mm 3 mps 696 mmHg 83%
    01:00 +21°C° 0 mm 3 mps 695 mmHg 83%
    02:00 +20°C° 0 mm 3 mps 695 mmHg 83%
    03:00 +20°C° 0 mm 3 mps 695 mmHg 84%
    04:00 +20°C° 0 mm 3 mps 695 mmHg 86%
    05:00 +20°C° 0 mm 3 mps 695 mmHg 87%
    06:00 +19°C° 0 mm 3 mps 695 mmHg 89%
    07:00 +21°C° 0 mm 3 mps 696 mmHg 81%
    08:00 +25°C° 0 mm 3 mps 696 mmHg 73%
    09:00 +27°C° 0 mm 4 mps 697 mmHg 64%
    10:00 +28°C° 0.3 mm 3 mps 697 mmHg 62%
    11:00 +28°C° 0.3 mm 3 mps 696 mmHg 60%
    12:00 +29°C° 0.3 mm 3 mps 696 mmHg 58%
    13:00 +30°C° 0.2 mm 3 mps 696 mmHg 58%
    14:00 +30°C° 0.2 mm 3 mps 695 mmHg 57%
    15:00 +30°C° 0.2 mm 3 mps 694 mmHg 56%
    16:00 +29°C° 0.5 mm 2 mps 694 mmHg 62%
    17:00 +28°C° 0.5 mm 2 mps 694 mmHg 67%
    18:00 +27°C° 0.5 mm 1 mps 694 mmHg 72%
    19:00 +26°C° 0.4 mm 1 mps 694 mmHg 76%
    20:00 +25°C° 0.4 mm 2 mps 694 mmHg 81%
    21:00 +23°C° 0.4 mm 2 mps 694 mmHg 85%
    22:00 +23°C° 1 mm 2 mps 694 mmHg 88%
    23:00 +21°C° 1 mm 2 mps 694 mmHg 90%

    24 November, Saturday

    Time Temperature Precipitation Wind Pressure Humidity
    00:00 +21°C° 1 mm 2 mps 694 mmHg 92%
    01:00 +21°C° 2.7 mm 2 mps 694 mmHg 92%
    02:00 +21°C° 2.7 mm 3 mps 694 mmHg 91%
    03:00 +21°C° 2.7 mm 3 mps 694 mmHg 91%
    04:00 +21°C° 2.8 mm 3 mps 694 mmHg 92%
    05:00 +20°C° 2.8 mm 3 mps 694 mmHg 93%
    06:00 +20°C° 2.8 mm 2 mps 694 mmHg 93%
    07:00 +20°C° 2.9 mm 3 mps 694 mmHg 93%
    08:00 +20°C° 2.9 mm 3 mps 695 mmHg 93%
    09:00 +21°C° 2.9 mm 3 mps 695 mmHg 93%
    10:00 +21°C° 4.3 mm 3 mps 695 mmHg 93%
    11:00 +20°C° 4.3 mm 3 mps 694 mmHg 94%
    12:00 +20°C° 4.3 mm 3 mps 694 mmHg 94%
    13:00 +21°C° 2.7 mm 3 mps 694 mmHg 94%
    14:00 +21°C° 2.7 mm 3 mps 693 mmHg 94%
    15:00 +21°C° 2.7 mm 3 mps 693 mmHg 94%
    16:00 +20°C° 2.8 mm 3 mps 692 mmHg 95%
    17:00 +20°C° 2.8 mm 3 mps 692 mmHg 95%
    18:00 +20°C° 2.8 mm 3 mps 692 mmHg 96%
    19:00 +20°C° 3.7 mm 3 mps 693 mmHg 96%
    20:00 +20°C° 3.7 mm 3 mps 693 mmHg 96%
    21:00 +20°C° 3.7 mm 3 mps 693 mmHg 97%
    22:00 +20°C° 3.9 mm 3 mps 693 mmHg 97%
    23:00 +20°C° 3.9 mm 3 mps 693 mmHg 97%
    Show more